User: anonymous   Login
Location: Unspecified
(0.0000°N, 0.0000°E)
Time: 14:40:54
(UTC+00:00)
Language:

OBJECT K - Orbit

View from above orbital plane
View from above orbital plane
View from above satellite
View from above satellite

Ground track
Ground track

The orbit data is extracted from the following two-line orbital elements,

1 42834U 17042K   19047.93100044 +.00000249 +00000-0 +30481-4 0  9992
2 42834 097.5793 305.9941 0014948 105.6633 254.6236 14.91123400086809
Epoch (UTC): 16 February 2019 22:20:38
Eccentricity: 0.0014948
inclination: 97.5793°
perigee height: 584 km
apogee height: 605 km
right ascension of ascending node: 305.9941°
argument of perigee: 105.6633°
revolutions per day: 14.91123400
mean anomaly at epoch: 254.6236°
orbit number at epoch: 8680

The dashed part of the orbit path shows where the satellite is in the earth's shadow,  

DLR